sat.trackr.live / text

‹ back to catalog

STARLINK-35372

NORAD 66476 · 2025-262W

PAYLOAD ACTIVE UNKNOWN

§ Identity

Operator
Country
US
Launch date
2025-11-15
Launch site
AFETR
Launch vehicle
Mass (kg)
RCS (m²)

Purposes: comms

External: N2YO · Heavens-Above · Gunter

§ Orbital elements

Epoch: 2026-09-20T07:58:02.161344Z

Period
94.27 min
Inclination
43.0018°
Eccentricity
0.0001122
Mean motion
15.27582515 rev/d
Perigee alt
482.3 km
Apogee alt
483.8 km
Semi-major
6,861.2 km
B*
3.1967e-4
RAAN
276.9972°
Arg perigee
270.2776°
Mean anomaly
89.7947°
Rev number
4,856

§ Raw data

STARLINK-353721 66476U 25262W   26263.33196946  .00008545  00000+0  31967-3 0  99962 66476  43.0018 276.9972 0001122 270.2776  89.7947 15.27582515 48564

JSON: /api/v1/satellites/66476 · /tle

For live sub-satellite position, see the globe view (requires WebGL).

§ Visibility from observer

Set your observer location to see the next 7 days of passes ≥ 10°. The values pass through the URL so the page stays shareable.

No JS? Fill the form by hand. The geolocation button needs JavaScript.